Location: Altoona
(40.5167°N, 78.4000°W)
Time: 07:53:57
(UTC-05:00)

Daily predictions for brighter satellites

Satellite Brightness Start Highest point End
(mag) Time Altitude Azimuth Time Altitude Azimuth Time Altitude Azimuth
CZ-4C R/B 4.4 18:15:55 10° N 18:19:42 15° NNE 18:23:42 10° ENE
NOSS 3-2 (C) 3.7 18:16:39 10° SW 18:22:34 76° NW 18:29:08 10° NNE
Cosmos 2219 Rocket 4.1 18:21:17 10° NW 18:26:25 37° WSW 18:31:31 10° S
SL-8 R/B 3.7 18:22:09 10° WSW 18:26:57 90° E 18:31:45 10° ENE
DNEPR-1 R/B 4.2 18:23:06 10° SW 18:27:12 55° NW 18:31:29 10° NNE
MTI 3.7 18:25:45 10° NNE 18:28:56 65° E 18:32:06 10° S
ALOS 2.3 18:24:34 10° SSE 18:29:14 89° ENE 18:33:56 10° NNW
Cosmos 44 3.5 18:28:16 10° NNW 18:33:16 61° NE 18:38:29 10° SE
MONITOR-E 4.2 18:32:38 10° S 18:35:39 82° WSW 18:38:41 10° NNW
FENGYUN 3A 3.8 18:32:57 10° S 18:38:21 81° WSW 18:43:48 10° NNW
Cosmos 2227 Rocket 3.0 18:36:35 10° SW 18:42:07 55° WNW 18:47:41 10° NNE
Cosmos 2233 Rocket 4.5 18:36:06 10° NNW 18:42:19 67° W 18:48:27 10° S
Cosmos 2237 Rocket 3.1 18:38:15 10° NNW 18:43:43 53° WSW 18:49:09 10° S
CENTAUR R/B 2.5 18:38:22 10° SSW 18:44:12 67° ESE 18:50:54 10° NE
Cosmos 1378 Rocket 3.8 18:40:23 10° N 18:44:39 46° E 18:48:54 10° SSE
SL-16 R/B 2.2 18:42:51 10° NNW 18:48:32 68° ENE 18:54:09 10° SSE
Cosmos 1633 2.4 18:48:46 10° S 18:52:18 72° E 18:55:53 10° NNE
Cosmos 1782 Rocket 4.2 18:49:03 10° SSE 18:53:03 34° E 18:57:03 10° NNE
SJ-6B 3.5 18:50:47 10° SE 18:54:04 29° ENE 18:57:27 10° N
Lacrosse 5 3.9 18:50:22 10° WNW 18:54:41 29° WSW 18:58:59 10° S
USA 186 4.2 18:56:26 10° NE 18:56:26 10° NE 18:56:28 10° NE
Cosmos 2297 Rocket 3.2 18:50:26 10° SW 18:55:54 49° WNW 19:01:24 10° NNE
H-2A R/B 2.7 18:52:48 10° SSE 18:56:43 79° ENE 19:00:38 10° N
Sich 1 Rocket 3.7 18:54:22 10° S 18:58:45 54° E 19:03:07 10° NNE
COSMO-SKYMED 1 4.3 18:57:27 10° N 19:01:26 36° WNW 19:05:23 10° SW
Cosmos 1464 Rocket 3.9 18:55:40 10° N 19:01:48 75° E 19:07:56 10° SSE
ERS-2 2.1 18:58:59 10° SSE 19:02:38 63° ENE 19:06:18 10° N
Cosmos 1603 4.4 19:01:54 10° N 19:07:00 33° ENE 19:10:05 20° ESE
Meteor 1-14 Rocket 4.5 19:01:42 10° SSW 19:07:29 78° W 19:13:25 10° N
Meteor 1-20 Rocket 4.3 19:02:26 10° S 19:08:08 89° E 19:13:58 10° N
BREEZE-M R/B 3.7 19:05:46 10° NW 19:08:15 53° NNE 19:12:04 19° ESE
Okean 1 3.3 19:04:59 10° N 19:08:56 58° E 19:12:51 10° SSE
Iridium 4 Rocket 3.1 19:04:40 10° N 19:09:31 74° E 19:13:55 10° S
Cosmos 158 Rocket 4.2 19:05:23 10° SSW 19:10:14 69° WNW 19:15:07 10° NNE
Cosmos 1452 Rocket 4.0 19:06:57 10° NNW 19:12:09 63° WSW 19:17:19 10° S
Okean 2 Rocket 3.6 19:09:25 10° SSE 19:13:23 34° E 19:17:22 10° NNE
BREEZE-M DEB (TANK) 2.4 19:11:49 10° NW 19:14:04 36° NNE 19:14:37 32° ENE
Cosmos 1812 4.1 19:10:29 10° NNW 19:14:09 42° W 19:17:48 10° SSW
CZ-2D R/B 3.5 19:12:35 10° SSE 19:16:19 46° ENE 19:20:04 10° N
Cosmos 1048 Rocket 4.0 19:11:10 10° SSW 19:16:30 88° ESE 19:21:49 10° NNE
SPOT 3 Rocket 4.5 19:13:05 10° S 19:18:07 51° W 19:23:13 10° NNW
Cosmos 2263 Rocket 3.5 19:20:44 10° SSE 19:23:04 19° SE 19:23:04 19° SE
Cosmos 1602 3.6 19:23:17 10° S 19:27:09 67° E 19:31:01 10° NNE
OAO 2 Rocket 3.9 19:23:31 10° WSW 19:28:11 43° S 19:29:58 30° SE
Cosmos 921 Rocket 3.1 19:27:57 10° NNW 19:32:29 83° WSW 19:36:57 10° SSE
Cosmos 2034 Rocket 4.1 19:31:32 10° N 19:37:57 79° W 19:44:17 10° S
Cosmos 2346 Rocket 4.4 19:33:51 10° S 19:39:58 64° E 19:46:03 10° NNE
Tiangong 2 3.5 19:39:10 10° WSW 19:41:17 17° SW 19:42:18 15° S
Meteor 2-4 Rocket 3.8 19:37:23 10° N 19:43:03 54° ENE 19:45:18 34° SE
Meteor 1-19 Rocket 4.0 19:38:07 10° N 19:43:40 79° E 19:49:13 10° SSE
Cosmos 1437 Rocket 3.5 19:40:59 10° SSW 19:44:57 56° W 19:49:01 10° N
Cosmos 2227 4.1 19:40:20 10° SSW 19:46:04 86° ESE 19:51:49 10° NNE
ARGOS Delta rocket 3.8 19:43:08 10° N 19:48:00 83° WNW 19:52:33 10° SSW
Meteor 1-11 Rocket 3.6 19:42:47 10° S 19:48:16 65° E 19:53:54 10° NNE
Cosmos 1634 Rocket 4.0 19:44:19 10° N 19:50:20 52° ENE 19:52:05 40° SE
Resurs 1-3 3.7 19:51:46 56° NE 19:51:46 56° NE 19:55:35 10° N
Cosmos 1816 Rocket 4.5 19:45:46 10° S 19:52:08 87° W 19:58:32 10° N
SeaSat 1 2.3 19:50:15 35° SSE 19:52:24 89° ENE 19:57:22 10° NNW
Gbstr 26 Del rocket 2.9 19:52:00 10° SW 19:55:12 64° SW 19:55:12 64° SW
USA 215 3.2 19:52:59 24° NE 19:57:12 85° NW 20:03:44 10° SW
Cosmos 1975 Rocket 3.9 19:55:52 10° NNW 20:00:11 51° W 20:04:30 10° SSW
Envisat 3.3 19:56:37 10° S 20:01:39 67° WSW 20:06:43 10° NNW
Cosmos 1939 Rocket 4.0 20:04:13 34° N 20:04:13 34° N 20:06:39 10° N
COSMOS 2455 2.7 19:58:42 10° SSW 20:04:39 67° ESE 20:05:36 58° ENE
Resurs 01 Rocket 1.7 20:06:03 65° N 20:06:03 65° N 20:09:52 10° NNW
Thor Agena Rocket 4.3 20:04:20 10° N 20:09:15 51° WNW 20:14:07 10° SW
CZ-4C R/B 3.2 20:03:12 10° NNW 20:10:03 46° NE 20:10:42 45° ENE
Cosmos 1943 3.3 20:08:12 10° NNW 20:13:10 58° NNE 20:13:10 58° NNE
BREEZE-M DEB (TANK) 3.6 20:10:35 10° SW 20:13:54 86° NW 20:15:23 52° NE
Cosmos 494 Rocket 4.1 20:11:50 10° SSW 20:17:02 72° WNW 20:19:03 38° N
Cosmos 1110 Rocket 4.2 20:13:06 10° NNW 20:18:22 69° WSW 20:19:14 58° SSW
ATLAS CENTAUR R/B 3.6 20:24:54 10° NNW 20:26:07 18° NNW 20:26:07 18° NNW
USA 267 3.5 20:30:04 51° NNE 20:30:04 51° NNE 20:36:15 10° NW
CENTAUR R/B 4.3 20:30:11 10° W 20:35:30 28° NW 20:41:26 10° NNE
H-2A R/B 4.5 20:40:37 12° N 20:40:37 12° N 20:41:05 10° N
Cosmos 2263 Rocket 4.2 21:03:16 10° SW 21:04:56 19° SW 21:04:56 19° SW
CZ-4C R/B 4.3 21:51:48 10° NW 21:55:55 33° WNW 21:55:55 33° WNW
